When you browse on this site, cookies collect data to enhance your experience and personalize the content and advertising you see.
Visit our Privacy Policy to learn more. By continuing to use the site, you agree to this use of cookies and data.
  • In Österreich
  • Länderverzeichnis
  • Für 7 Tage
  • Wassertemperatur
  • Wetterkarte
  • News
  • Widgets
  • user-avatar
    Anmelden

    Stündliche Wetter Schwerin

    Heute, 27 Mai, Mittwoch

    Zeit Temperatur Niederschläge Wind Luftdruck Luftfeuchtigkeit
    00:00 +12°C° 0 mm 1 m/S 771 mmHg 90%
    01:00 +11°C° 0 mm 1 m/S 771 mmHg 90%
    02:00 +11°C° 0 mm 1 m/S 771 mmHg 91%
    03:00 +11°C° 0 mm 1 m/S 771 mmHg 91%
    04:00 +11°C° 0 mm 1 m/S 771 mmHg 91%
    05:00 +12°C° 0 mm 1 m/S 771 mmHg 89%
    06:00 +14°C° 0 mm 1 m/S 770 mmHg 87%
    07:00 +15°C° 0 mm 2 m/S 770 mmHg 85%
    08:00 +16°C° 0 mm 2 m/S 770 mmHg 80%
    09:00 +17°C° 0 mm 3 m/S 770 mmHg 74%
    10:00 +18°C° 0 mm 3 m/S 770 mmHg 68%
    11:00 +18°C° 0 mm 3 m/S 770 mmHg 65%
    12:00 +18°C° 0 mm 4 m/S 769 mmHg 63%
    13:00 +19°C° 0 mm 4 m/S 769 mmHg 60%
    14:00 +18°C° 0 mm 4 m/S 769 mmHg 64%
    15:00 +18°C° 0 mm 4 m/S 769 mmHg 68%
    16:00 +18°C° 0 mm 4 m/S 769 mmHg 72%
    17:00 +15°C° 0.1 mm 5 m/S 769 mmHg 73%
    18:00 +14°C° 0.1 mm 5 m/S 769 mmHg 74%
    19:00 +12°C° 0.1 mm 5 m/S 769 mmHg 75%
    20:00 +12°C° 0 mm 5 m/S 769 mmHg 76%
    21:00 +11°C° 0 mm 4 m/S 769 mmHg 76%
    22:00 +10°C° 0 mm 3 m/S 770 mmHg 77%
    23:00 +8°C° 0 mm 4 m/S 770 mmHg 82%

    Morgen, 28 Mai, Donnerstag

    Zeit Temperatur Niederschläge Wind Luftdruck Luftfeuchtigkeit
    00:00 +7°C° 0 mm 4 m/S 770 mmHg 87%
    01:00 +6°C° 0 mm 4 m/S 770 mmHg 92%
    02:00 +5°C° 0 mm 4 m/S 770 mmHg 92%
    03:00 +5°C° 0 mm 4 m/S 770 mmHg 93%
    04:00 +4°C° 0 mm 4 m/S 769 mmHg 93%
    05:00 +6°C° 0 mm 4 m/S 769 mmHg 89%
    06:00 +7°C° 0 mm 5 m/S 769 mmHg 84%
    07:00 +9°C° 0 mm 5 m/S 769 mmHg 80%
    08:00 +10°C° 0 mm 5 m/S 769 mmHg 77%
    09:00 +12°C° 0 mm 5 m/S 769 mmHg 74%
    10:00 +13°C° 0 mm 5 m/S 769 mmHg 71%
    11:00 +14°C° 0 mm 5 m/S 769 mmHg 69%
    12:00 +15°C° 0 mm 5 m/S 769 mmHg 68%
    13:00 +15°C° 0 mm 5 m/S 769 mmHg 66%
    14:00 +15°C° 0 mm 5 m/S 768 mmHg 66%
    15:00 +15°C° 0 mm 4 m/S 768 mmHg 67%
    16:00 +15°C° 0 mm 4 m/S 768 mmHg 67%
    17:00 +15°C° 0 mm 4 m/S 768 mmHg 71%
    18:00 +14°C° 0 mm 3 m/S 768 mmHg 76%
    19:00 +13°C° 0 mm 3 m/S 768 mmHg 80%
    20:00 +13°C° 0 mm 2 m/S 768 mmHg 84%
    21:00 +10°C° 0 mm 2 m/S 768 mmHg 87%
    22:00 +9°C° 0 mm 2 m/S 768 mmHg 90%
    23:00 +9°C° 0 mm 1 m/S 768 mmHg 90%

    übermorgen, 29 Mai, Freitag

    Zeit Temperatur Niederschläge Wind Luftdruck Luftfeuchtigkeit
    00:00 +8°C° 0 mm 1 m/S 768 mmHg 91%
    01:00 +8°C° 0 mm 1 m/S 768 mmHg 91%
    02:00 +8°C° 0 mm 1 m/S 768 mmHg 90%
    03:00 +6°C° 0 mm 0 m/S 768 mmHg 89%
    04:00 +6°C° 0 mm 0 m/S 768 mmHg 88%
    05:00 +8°C° 0 mm 0 m/S 768 mmHg 83%
    06:00 +9°C° 0 mm 0 m/S 768 mmHg 78%
    07:00 +12°C° 0 mm 1 m/S 768 mmHg 72%
    08:00 +14°C° 0 mm 1 m/S 768 mmHg 66%
    09:00 +15°C° 0 mm 1 m/S 768 mmHg 60%
    10:00 +18°C° 0 mm 1 m/S 768 mmHg 54%
    11:00 +18°C° 0 mm 1 m/S 768 mmHg 53%
    12:00 +19°C° 0 mm 1 m/S 768 mmHg 52%
    13:00 +18°C° 0 mm 2 m/S 767 mmHg 50%
    14:00 +18°C° 0 mm 2 m/S 767 mmHg 53%
    15:00 +18°C° 0 mm 2 m/S 767 mmHg 55%
    16:00 +18°C° 0 mm 3 m/S 766 mmHg 58%
    17:00 +17°C° 0 mm 3 m/S 766 mmHg 64%
    18:00 +16°C° 0 mm 3 m/S 766 mmHg 70%
    19:00 +15°C° 0 mm 2 m/S 766 mmHg 76%
    20:00 +13°C° 0 mm 2 m/S 766 mmHg 79%
    21:00 +10°C° 0 mm 2 m/S 766 mmHg 83%
    22:00 +9°C° 0 mm 2 m/S 766 mmHg 86%
    23:00 +8°C° 0 mm 2 m/S 766 mmHg 86%

    30 Mai, Samstag

    Zeit Temperatur Niederschläge Wind Luftdruck Luftfeuchtigkeit
    00:00 +9°C° 0 mm 1 m/S 766 mmHg 86%
    01:00 +8°C° 0 mm 1 m/S 766 mmHg 87%
    02:00 +8°C° 0 mm 1 m/S 766 mmHg 88%
    03:00 +8°C° 0 mm 1 m/S 766 mmHg 88%
    04:00 +8°C° 0 mm 1 m/S 765 mmHg 89%
    05:00 +9°C° 0 mm 2 m/S 765 mmHg 86%
    06:00 +10°C° 0 mm 2 m/S 765 mmHg 83%
    07:00 +12°C° 0 mm 3 m/S 765 mmHg 79%
    08:00 +13°C° 0 mm 3 m/S 765 mmHg 76%
    09:00 +15°C° 0 mm 4 m/S 765 mmHg 73%
    10:00 +17°C° 0 mm 4 m/S 765 mmHg 70%
    11:00 +16°C° 0 mm 5 m/S 765 mmHg 69%
    12:00 +17°C° 0 mm 5 m/S 764 mmHg 68%
    13:00 +17°C° 0 mm 5 m/S 764 mmHg 67%
    14:00 +17°C° 0.1 mm 5 m/S 764 mmHg 66%
    15:00 +17°C° 0.1 mm 5 m/S 764 mmHg 66%
    16:00 +18°C° 0.1 mm 4 m/S 763 mmHg 66%
    17:00 +17°C° 0 mm 4 m/S 763 mmHg 69%
    18:00 +14°C° 0 mm 3 m/S 763 mmHg 72%
    19:00 +13°C° 0 mm 3 m/S 763 mmHg 75%
    20:00 +13°C° 0 mm 2 m/S 763 mmHg 76%
    21:00 +10°C° 0 mm 2 m/S 763 mmHg 77%
    22:00 +9°C° 0 mm 2 m/S 764 mmHg 78%
    23:00 +9°C° 0 mm 2 m/S 763 mmHg 76%

    31 Mai, Sonntag

    Zeit Temperatur Niederschläge Wind Luftdruck Luftfeuchtigkeit
    00:00 +9°C° 0 mm 2 m/S 763 mmHg 75%
    01:00 +9°C° 0 mm 3 m/S 763 mmHg 73%
    02:00 +9°C° 0 mm 3 m/S 763 mmHg 79%
    03:00 +9°C° 0 mm 3 m/S 763 mmHg 84%
    04:00 +9°C° 0 mm 3 m/S 762 mmHg 90%
    05:00 +10°C° 0 mm 3 m/S 762 mmHg 85%
    06:00 +11°C° 0 mm 3 m/S 762 mmHg 80%
    07:00 +12°C° 0 mm 4 m/S 762 mmHg 75%
    08:00 +12°C° 0.2 mm 4 m/S 762 mmHg 78%
    09:00 +11°C° 0.2 mm 3 m/S 762 mmHg 82%
    10:00 +11°C° 0.2 mm 3 m/S 762 mmHg 86%
    11:00 +11°C° 0.7 mm 4 m/S 762 mmHg 89%
    12:00 +10°C° 0.7 mm 4 m/S 762 mmHg 91%
    13:00 +9°C° 0.7 mm 5 m/S 762 mmHg 94%
    14:00 +10°C° 1 mm 4 m/S 762 mmHg 94%
    15:00 +10°C° 1 mm 4 m/S 761 mmHg 94%
    16:00 +10°C° 1 mm 4 m/S 761 mmHg 94%
    17:00 +11°C° 0.1 mm 3 m/S 761 mmHg 94%
    18:00 +11°C° 0.1 mm 3 m/S 761 mmHg 94%
    19:00 +11°C° 0.1 mm 3 m/S 761 mmHg 95%
    20:00 +11°C° 0 mm 3 m/S 761 mmHg 95%
    21:00 +11°C° 0 mm 3 m/S 761 mmHg 95%
    22:00 +11°C° 0 mm 3 m/S 762 mmHg 95%
    23:00 +10°C° 0 mm 2 m/S 762 mmHg 95%

    1 Juni, Montag

    Zeit Temperatur Niederschläge Wind Luftdruck Luftfeuchtigkeit
    00:00 +10°C° 0 mm 2 m/S 761 mmHg 95%
    01:00 +9°C° 0 mm 2 m/S 761 mmHg 96%
    02:00 +9°C° 0 mm 2 m/S 761 mmHg 96%
    03:00 +9°C° 0 mm 2 m/S 761 mmHg 95%
    04:00 +10°C° 0 mm 1 m/S 761 mmHg 95%
    05:00 +10°C° 0 mm 2 m/S 762 mmHg 94%
    06:00 +12°C° 0 mm 2 m/S 762 mmHg 94%
    07:00 +13°C° 0 mm 2 m/S 762 mmHg 93%
    08:00 +13°C° 0 mm 2 m/S 762 mmHg 91%
    09:00 +14°C° 0 mm 2 m/S 762 mmHg 90%
    10:00 +15°C° 0 mm 2 m/S 762 mmHg 89%
    11:00 +16°C° 0 mm 2 m/S 762 mmHg 86%
    12:00 +18°C° 0 mm 3 m/S 762 mmHg 82%
    13:00 +19°C° 0 mm 3 m/S 762 mmHg 79%
    14:00 +20°C° 0.1 mm 4 m/S 762 mmHg 77%
    15:00 +20°C° 0.1 mm 4 m/S 761 mmHg 75%
    16:00 +21°C° 0.1 mm 4 m/S 761 mmHg 74%
    17:00 +20°C° 0 mm 4 m/S 761 mmHg 76%
    18:00 +19°C° 0 mm 5 m/S 761 mmHg 78%
    19:00 +17°C° 0 mm 5 m/S 761 mmHg 80%
    20:00 +15°C° 0 mm 5 m/S 761 mmHg 81%
    21:00 +13°C° 0 mm 4 m/S 761 mmHg 82%
    22:00 +11°C° 0 mm 4 m/S 762 mmHg 84%
    23:00 +10°C° 0 mm 4 m/S 761 mmHg 87%
    Mehr zeigen